Regional Weather Roundup
Issued by NWS

Home | Current Version | Previous Version | Graphics & Text | Print | Product List | Glossary On
Versions: 1 2 3 4 5 6 7 8 9 10 11 12 13 14 15 16 17 18 19 20 21 22 23 24 25 26 27 28 29 30 31 32 33 34 35 36 37 38 39 40 41 42 43 44 45 46 47 48 49 50
000
ASUS43 KLMK 191102
RWRKY
KENTUCKY REGIONAL WEATHER ROUNDUP
NATIONAL WEATHER SERVICE LOUISVILLE KY
700 AM EDT FRI SEP 19 2014

NOTE "FAIR" INDICATES FEW OR NO CLOUDS BELOW 12,000 FEET
WITH NO SIGNIFICANT WEATHER AND/OR OBSTRUCTIONS TO VISIBILITY.

KYZ001>023-026-027-061>063-070>075-191200-
WESTERN AND SOUTH CENTRAL KENTUCKY

CITY           SKY/WX    TMP DP  RH WIND       PRES   REMARKS
PADUCAH        CLEAR     59  53  80 CALM      30.04S
HENDERSON      CLEAR     55  48  76 E5        30.08F
OWENSBORO      CLEAR     58  52  80 E7        30.09S
HOPKINSVILLE   CLEAR     54  54 100 NE6       30.05S
BOWLING GREEN  CLEAR     55  51  86 CALM      30.08R
GLASGOW        CLEAR     54  54  99 CALM      30.08S
$$

KYZ024-025-028>034-038-045-046-053-191200-
NORTH CENTRAL KENTUCKY

CITY           SKY/WX    TMP DP  RH WIND       PRES   REMARKS
LOUISVILLE/SDF CLEAR     58  48  69 NE5       30.12S
LOUISVILLE/LOU CLEAR     57  48  72 NE7       30.12S
FORT KNOX      CLEAR     55  49  79 NE7       30.10R
$$

KYZ035>037-039>044-047>052-055>060-089>105-191200-
NORTHEAST KENTUCKY

CITY           SKY/WX    TMP DP  RH WIND       PRES   REMARKS
LEXINGTON      CLEAR     54  47  77 NE8       30.13R
COVINGTON      CLEAR     54  48  80 E9        30.16R
FRANKFORT      CLEAR     54  47  77 NE3       30.12S
$$

KYZ054-064>069-076>088-106>120-191200-
SOUTHEAST KENTUCKY

CITY           SKY/WX    TMP DP  RH WIND       PRES   REMARKS
JACKSON        CLEAR     53  48  83 CALM      30.13R
LONDON         CLEAR     55  51  86 N5        30.12R
SOMERSET       NOT AVBL
MIDDLESBORO    FOG       53  53 100 CALM      30.12S VSB 1/4
MONTICELLO     SUNNY     54  53  96 CALM      30.11S
$$




USA.gov is the U.S. government's official web portal to all federal, state and local government web resources and services.